Terminal Aerodrome Forecast
Issued by NWS

Home | Current Version | Previous Version | Graphics & Text | Print | Product List | Glossary On
Versions: 1 2 3 4 5 6 7 8 9 10 11 12 13 14 15 16
000
FTUS43 KBIS 022300
TAFJMS
TAF
KJMS 022338Z 0300/0324 18022KT P6SM SKC
     FM030300 16013KT P6SM SCT050
     FM030900 32025G35KT 5SM BLSN OVC015
     FM031500 32024G34KT P6SM SCT015 BKN035=

USA.gov is the U.S. government's official web portal to all federal, state and local government web resources and services.